Location: Macksville High School
(37.9611°N, 99.9654°W)
Time: 19:21:33
(UTC+00:00)

SKYMED 2 - Pass Details

Date: 17 January 2021
Orbit: 621 x 623 km, 97.9° (Epoch: 26 February)

Event Time Altitude Azimuth Distance (km) Brightness Sun altitude
Rises 12:31:52 0° 188° (S) 2,888 7.1 -16.0°
Reaches altitude 10° 12:34:13 10° 198° (SSW) 1,987 6.1 -15.5°
Maximum altitude 12:38:07 33° 263° (W) 1,058 4.2 -14.8°
Enters shadow 12:40:32 19° 314° (NW) 1,483 5.0 -14.3°
